GFSSGP_prec_pwat_159.txt.gz
Precipitable_Water
1.81 1.93 1.87 1.59 1.02 0.93 0.80 0.86 1.05 0.96 1.02 1.19 1.26 1.17 1.14 1.21 0.96 0.91 1.72 1.78 1.88 1.90 2.08 2.13 2.14 2.10 2.10 2.14 2.16 2.18 2.14 2.15 2.14 2.18 2.26 2.20 2.15 2.13 1.89 1.52 1.62 1.77 1.90 1.86 1.77 1.69 1.63 1.64 1.58
1.80 1.78 1.64 1.30 0.89 0.75 0.78 0.97 0.96 1.00 1.13 1.19 1.19 1.20 1.13 1.04 1.35 1.46 1.58 1.80 1.87 1.98 2.06 2.11 2.17 2.15 2.13 2.14 2.15 2.21 2.24 2.09 2.11 2.16 2.23 2.16 2.05 1.81 1.60 1.96 2.10 1.99 1.77 1.63 1.56 1.57 1.57 1.52 1.65
1.92 1.82 1.30 1.08 0.91 0.78 0.75 0.95 1.05 1.14 1.24 1.18 1.06 1.16 1.11 1.09 1.38 1.48 1.71 1.80 1.88 1.91 2.06 2.07 2.16 2.18 2.12 2.14 2.15 2.21 2.26 2.13 2.25 2.24 2.23 1.99 1.72 1.77 2.13 2.14 1.90 1.59 1.48 1.45 1.45 1.41 1.37 1.52 1.64
1.84 1.61 1.45 1.00 0.84 0.97 0.89 0.99 1.11 1.15 1.17 1.17 1.07 0.91 1.21 1.44 1.40 1.53 1.72 1.76 1.77 1.86 2.00 2.10 2.09 2.06 2.09 2.12 2.23 2.19 2.12 1.94 2.09 1.93 1.84 1.89 2.00 2.11 2.04 1.73 1.46 1.38 1.33 1.31 1.34 1.33 1.42 1.45 1.50
1.74 1.49 1.10 0.99 0.97 1.02 1.07 1.12 1.15 1.09 1.09 1.06 1.01 0.90 0.99 1.30 1.46 1.55 1.63 1.70 1.67 1.83 1.93 2.09 2.11 2.05 2.09 2.11 2.20 2.13 2.06 1.95 1.95 1.95 1.94 2.10 2.13 1.97 1.66 1.47 1.42 1.35 1.34 1.34 1.33 1.28 1.21 1.43 1.47
1.30 1.32 1.02 0.95 1.06 1.16 1.15 1.20 1.16 1.07 1.05 1.01 0.97 0.92 1.01 1.38 1.40 1.51 1.64 1.71 1.81 1.79 1.90 2.02 2.16 2.10 2.10 2.08 2.08 2.16 2.04 2.00 2.06 2.14 2.15 2.11 1.97 1.68 1.55 1.47 1.42 1.44 1.51 1.52 1.41 1.28 1.26 1.36 1.51
1.22 1.19 1.06 1.12 1.11 1.09 1.12 1.32 1.12 0.97 1.02 0.99 1.08 0.86 1.09 1.29 1.52 1.55 1.59 1.68 1.80 1.89 1.91 2.07 2.14 2.15 2.14 2.15 2.07 2.15 2.04 2.00 1.98 2.11 2.04 2.00 1.86 1.60 1.54 1.56 1.54 1.55 1.50 1.47 1.40 1.37 1.36 1.42 1.51
1.44 1.33 1.14 1.20 1.13 1.11 1.30 1.24 1.20 1.09 1.02 1.22 1.19 0.81 0.92 1.30 1.49 1.51 1.58 1.70 1.80 1.94 2.02 2.07 2.14 2.13 2.07 2.09 2.04 2.03 2.01 1.92 1.91 1.89 1.98 1.94 1.69 1.62 1.63 1.58 1.54 1.52 1.47 1.40 1.32 1.35 1.34 1.45 1.62
1.60 1.17 1.06 1.18 1.22 1.26 1.44 1.12 1.28 1.28 1.13 1.16 1.13 1.04 1.16 1.40 1.52 1.49 1.47 1.63 1.76 1.87 2.00 2.06 2.04 2.03 1.99 1.93 1.90 1.89 1.83 1.78 1.79 1.85 1.86 1.67 1.58 1.58 1.57 1.51 1.51 1.49 1.43 1.40 1.46 1.61 1.65 1.68 1.79
1.30 1.07 1.13 1.34 1.46 1.34 1.39 1.25 1.20 1.13 1.10 1.03 0.99 1.14 1.28 1.45 1.47 1.39 1.33 1.41 1.57 1.72 1.88 1.98 2.00 2.04 1.97 1.88 1.86 1.76 1.76 1.68 1.66 1.70 1.67 1.57 1.55 1.58 1.54 1.55 1.55 1.55 1.50 1.55 1.59 1.65 1.77 1.90 1.98
1.25 1.02 1.27 1.33 1.49 1.53 1.35 1.30 1.34 1.14 1.04 1.01 0.91 1.00 1.25 1.37 1.41 1.38 1.38 1.31 1.37 1.65 1.80 1.89 1.93 1.97 1.95 1.85 1.78 1.69 1.77 1.85 1.78 1.73 1.67 1.61 1.59 1.59 1.50 1.49 1.51 1.47 1.52 1.55 1.62 1.69 1.88 1.94 2.04
1.14 1.33 1.34 1.39 1.50 1.48 1.35 1.46 1.34 1.18 1.11 1.16 1.11 1.21 1.26 1.28 1.41 1.42 1.37 1.30 1.36 1.51 1.68 1.80 1.89 1.89 1.93 1.87 1.78 1.80 1.98 1.89 1.76 1.72 1.62 1.51 1.54 1.43 1.39 1.46 1.49 1.52 1.61 1.59 1.64 1.81 1.88 1.93 2.05
1.13 1.23 1.34 1.42 1.50 1.50 1.52 1.38 1.29 1.17 1.23 1.30 1.21 1.23 1.24 1.27 1.33 1.43 1.45 1.43 1.40 1.44 1.56 1.70 1.81 1.81 1.87 1.85 1.87 1.98 1.84 1.88 1.78 1.69 1.58 1.65 1.53 1.47 1.53 1.50 1.53 1.57 1.57 1.57 1.56 1.70 1.75 1.80 2.01
1.23 1.25 1.25 1.35 1.41 1.50 1.38 1.36 1.36 1.35 1.42 1.27 1.18 1.24 1.23 1.23 1.34 1.37 1.37 1.36 1.31 1.45 1.47 1.59 1.65 1.70 1.76 1.71 1.78 1.74 1.77 1.83 1.72 1.66 1.58 1.63 1.67 1.62 1.52 1.57 1.73 1.65 1.53 1.54 1.57 1.74 1.88 1.70 1.76
1.19 1.07 1.22 1.32 1.35 1.35 1.48 1.21 1.24 1.47 1.45 1.24 1.14 1.23 1.35 1.37 1.44 1.29 1.30 1.30 1.24 1.32 1.45 1.45 1.49 1.63 1.64 1.68 1.67 1.63 1.72 1.77 1.68 1.65 1.61 1.65 1.62 1.56 1.61 1.58 1.67 1.61 1.57 1.47 1.56 1.73 1.83 1.86 1.91
1.07 1.08 0.87 1.09 1.19 1.30 1.28 0.99 1.27 1.48 1.45 1.30 1.20 1.25 1.34 1.40 1.36 1.50 1.37 1.37 1.35 1.29 1.36 1.52 1.52 1.58 1.69 1.83 1.86 1.72 1.67 1.70 1.72 1.63 1.60 1.68 1.63 1.60 1.69 1.73 1.67 1.61 1.54 1.51 1.59 1.68 1.78 1.80 1.69
0.93 0.75 0.83 0.94 1.16 1.17 1.14 0.98 1.22 1.43 1.34 1.35 1.30 1.26 1.26 1.34 1.47 1.51 1.40 1.43 1.31 1.39 1.31 1.36 1.55 1.65 1.72 1.87 1.98 1.80 1.72 1.71 1.71 1.66 1.69 1.73 1.62 1.61 1.61 1.74 1.72 1.69 1.51 1.47 1.61 1.70 1.81 1.67 1.52
0.67 0.74 0.81 0.79 1.00 1.07 0.95 0.92 1.15 1.29 1.31 1.33 1.33 1.33 1.30 1.26 1.28 1.35 1.42 1.48 1.37 1.40 1.44 1.44 1.58 1.70 1.67 1.77 1.88 1.78 1.86 1.82 1.67 1.66 1.72 1.83 1.82 1.72 1.66 1.69 1.62 1.76 1.45 1.45 1.64 1.65 1.82 1.70 1.52
0.73 0.71 0.75 0.89 1.04 0.96 0.90 0.90 1.02 1.21 1.27 1.31 1.36 1.32 1.31 1.34 1.42 1.41 1.45 1.50 1.45 1.40 1.44 1.44 1.50 1.61 1.63 1.62 1.63 1.54 1.55 1.54 1.54 1.71 1.69 1.67 1.72 1.89 1.77 1.74 1.79 1.70 1.54 1.60 1.66 1.58 1.69 1.63 1.62
0.58 0.61 0.66 0.84 0.98 0.91 0.91 0.87 1.02 1.12 1.18 1.28 1.35 1.36 1.36 1.34 1.37 1.41 1.46 1.51 1.51 1.43 1.44 1.47 1.50 1.63 1.66 1.67 1.66 1.63 1.65 1.57 1.66 1.75 1.66 1.62 1.64 1.77 1.70 1.78 1.69 1.70 1.75 1.74 1.61 1.52 1.49 1.55 1.72
0.42 0.49 0.65 0.64 0.86 0.93 0.87 0.77 0.91 1.07 1.20 1.26 1.38 1.44 1.43 1.31 1.31 1.35 1.38 1.43 1.48 1.45 1.45 1.48 1.49 1.59 1.63 1.70 1.74 1.73 1.73 1.69 1.64 1.63 1.69 1.64 1.60 1.79 1.82 1.71 1.58 1.60 1.72 1.69 1.72 1.59 1.55 1.52 1.67
0.30 0.62 0.71 0.71 0.68 0.53 0.85 0.56 0.78 0.96 1.00 1.11 1.26 1.40 1.47 1.42 1.40 1.37 1.35 1.36 1.43 1.42 1.55 1.58 1.55 1.52 1.60 1.65 1.58 1.54 1.54 1.43 1.43 1.54 1.63 1.46 1.63 1.80 1.79 1.66 1.57 1.66 1.82 1.72 1.70 1.74 1.60 1.63 1.55
0.35 0.57 0.70 0.68 0.68 0.65 0.69 0.58 0.63 0.87 0.82 0.99 1.15 1.27 1.40 1.57 1.52 1.40 1.37 1.34 1.36 1.47 1.50 1.58 1.59 1.56 1.55 1.62 1.58 1.61 1.60 1.65 1.59 1.57 1.50 1.47 1.60 1.72 1.65 1.70 1.72 1.73 1.86 1.86 1.84 1.72 1.62 1.63 1.63
0.51 0.61 0.67 0.66 0.70 0.47 0.52 0.55 0.54 0.68 0.78 0.93 1.14 1.17 1.27 1.47 1.60 1.59 1.57 1.53 1.45 1.48 1.48 1.57 1.56 1.60 1.61 1.60 1.55 1.65 1.65 1.65 1.54 1.46 1.45 1.45 1.53 1.55 1.63 1.73 1.72 1.70 1.77 1.81 1.76 1.65 1.58 1.59 1.63
0.38 0.40 0.34 0.38 0.40 0.37 0.51 0.55 0.53 0.78 0.94 1.02 1.06 1.24 1.23 1.34 1.51 1.60 1.59 1.54 1.41 1.36 1.37 1.50 1.53 1.55 1.59 1.59 1.58 1.60 1.62 1.67 1.58 1.45 1.51 1.50 1.42 1.47 1.41 1.59 1.61 1.62 1.69 1.65 1.66 1.56 1.52 1.60 1.59
0.28 0.32 0.24 0.22 0.25 0.27 0.49 0.34 0.47 0.81 1.01 1.14 1.26 1.29 1.29 1.24 1.44 1.57 1.58 1.59 1.45 1.42 1.37 1.36 1.46 1.53 1.56 1.51 1.52 1.54 1.63 1.69 1.59 1.56 1.63 1.59 1.54 1.58 1.61 1.56 1.69 1.66 1.61 1.59 1.59 1.58 1.53 1.63 1.65
0.27 0.25 0.32 0.27 0.32 0.26 0.35 0.52 0.69 0.81 0.81 0.94 1.09 1.23 1.29 1.22 1.30 1.50 1.63 1.68 1.67 1.65 1.48 1.36 1.41 1.48 1.52 1.51 1.48 1.49 1.55 1.58 1.58 1.63 1.70 1.66 1.67 1.60 1.67 1.69 1.91 1.73 1.69 1.60 1.57 1.51 1.47 1.55 1.52
0.28 0.32 0.27 0.30 0.22 0.22 0.37 0.44 0.43 0.53 0.64 0.79 0.99 1.19 1.33 1.42 1.39 1.44 1.54 1.70 1.79 1.76 1.65 1.57 1.52 1.47 1.50 1.53 1.53 1.47 1.50 1.58 1.62 1.66 1.71 1.66 1.77 1.66 1.75 1.85 1.92 1.75 1.62 1.58 1.68 1.60 1.61 1.45 1.51
0.34 0.32 0.35 0.40 0.38 0.26 0.26 0.33 0.61 0.58 0.64 0.70 0.87 1.09 1.27 1.40 1.43 1.48 1.50 1.63 1.71 1.74 1.73 1.72 1.76 1.67 1.50 1.48 1.53 1.52 1.45 1.46 1.48 1.61 1.70 1.86 1.69 1.60 1.69 1.86 1.95 1.79 1.70 1.51 1.44 1.54 1.55 1.45 1.51
0.54 0.46 0.43 0.33 0.34 0.42 0.40 0.35 0.66 0.66 0.68 0.79 0.90 1.07 1.21 1.43 1.49 1.53 1.60 1.66 1.66 1.70 1.80 1.86 1.90 1.75 1.62 1.62 1.58 1.55 1.57 1.55 1.39 1.46 1.61 1.78 1.70 1.67 1.64 1.78 1.71 1.66 1.72 1.59 1.52 1.55 1.57 1.45 1.47

GFSSGP_prec_pwat_162.txt.gz
Precipitable_Water
1.86 1.90 1.87 1.61 1.02 0.94 0.77 0.84 1.03 0.94 0.99 1.18 1.23 1.14 1.08 1.22 0.98 0.88 1.72 1.77 1.89 1.87 1.96 2.03 2.05 2.04 2.13 2.08 2.15 2.15 2.09 2.18 2.22 2.25 2.19 2.14 2.10 2.14 1.86 1.53 1.66 1.81 1.89 1.84 1.81 1.69 1.68 1.51 1.55
1.76 1.78 1.62 1.32 0.90 0.74 0.79 0.94 0.92 1.02 1.15 1.23 1.21 1.15 1.09 1.06 1.36 1.44 1.55 1.77 1.90 1.95 2.06 2.05 2.11 2.08 2.09 2.18 2.21 2.22 2.09 2.17 2.23 2.29 2.22 2.22 2.20 1.83 1.66 1.92 2.10 2.00 1.80 1.79 1.71 1.67 1.60 1.68 1.81
1.91 1.79 1.31 1.06 0.91 0.77 0.78 0.99 1.01 1.14 1.25 1.16 1.05 1.20 1.13 1.09 1.40 1.48 1.73 1.76 1.88 1.94 2.06 2.11 2.16 2.13 2.12 2.12 2.17 2.26 2.28 2.16 2.18 2.26 2.26 2.11 1.84 1.79 2.14 2.13 1.87 1.66 1.59 1.48 1.48 1.41 1.53 1.70 1.78
1.82 1.62 1.40 1.00 0.84 0.97 0.90 0.97 1.10 1.10 1.16 1.17 1.09 0.91 1.21 1.43 1.38 1.57 1.75 1.79 1.80 1.92 2.02 2.10 2.18 2.19 2.14 2.15 2.20 2.26 2.29 2.21 2.29 2.30 2.08 1.82 1.95 2.21 2.01 1.73 1.51 1.47 1.37 1.40 1.40 1.44 1.59 1.63 1.69
1.71 1.39 1.08 0.97 0.92 1.01 1.04 1.09 1.16 1.05 1.05 0.99 1.01 0.88 0.99 1.32 1.51 1.58 1.66 1.75 1.75 1.86 2.02 2.10 2.11 2.12 2.12 2.25 2.25 2.20 2.05 2.11 2.09 1.91 1.96 2.11 2.09 1.92 1.68 1.53 1.49 1.41 1.43 1.39 1.37 1.38 1.52 1.55 1.59
1.22 1.29 0.95 0.92 1.00 1.08 1.15 1.15 1.15 1.08 1.10 1.04 0.95 0.89 0.98 1.35 1.36 1.52 1.71 1.70 1.78 1.84 1.95 2.13 2.11 2.11 2.04 2.16 2.15 2.11 1.98 2.02 2.01 1.95 2.15 2.15 1.90 1.72 1.65 1.56 1.47 1.49 1.52 1.49 1.41 1.37 1.44 1.56 1.62
1.18 1.19 1.01 1.06 1.09 1.11 1.14 1.28 1.09 1.04 1.02 0.95 1.06 0.83 1.05 1.25 1.43 1.54 1.66 1.76 1.78 1.84 1.90 2.02 2.13 2.12 2.10 2.03 2.14 2.14 2.14 2.09 2.14 2.18 2.15 2.02 1.82 1.69 1.65 1.60 1.59 1.60 1.56 1.52 1.47 1.41 1.38 1.53 1.64
1.32 1.30 1.11 1.17 1.13 1.08 1.31 1.30 1.17 1.08 1.00 1.16 1.11 0.79 0.89 1.27 1.47 1.55 1.64 1.65 1.80 1.82 1.86 2.01 2.13 2.14 2.10 2.05 2.13 2.06 2.03 2.05 2.13 2.02 2.03 1.89 1.70 1.67 1.66 1.60 1.56 1.58 1.54 1.48 1.46 1.45 1.49 1.57 1.72
1.53 1.06 1.01 1.11 1.18 1.20 1.31 1.10 1.18 1.31 1.06 1.12 1.10 1.07 1.16 1.40 1.53 1.47 1.53 1.66 1.77 1.89 1.92 2.02 2.14 2.12 2.11 2.03 2.02 2.05 1.96 1.94 1.89 1.94 1.91 1.70 1.61 1.60 1.58 1.54 1.51 1.51 1.49 1.54 1.50 1.52 1.57 1.63 1.83
1.18 1.01 1.10 1.38 1.44 1.32 1.30 1.21 1.21 1.07 1.05 0.97 0.95 1.14 1.30 1.42 1.44 1.28 1.31 1.49 1.66 1.77 1.93 2.03 2.04 2.03 1.97 1.93 1.85 1.88 1.78 1.69 1.75 1.76 1.66 1.56 1.56 1.58 1.57 1.53 1.52 1.47 1.44 1.50 1.55 1.58 1.67 1.79 1.93
1.25 1.00 1.24 1.41 1.54 1.52 1.37 1.28 1.30 1.09 0.95 0.95 0.82 1.08 1.29 1.33 1.35 1.28 1.24 1.36 1.57 1.79 1.89 1.95 2.00 1.97 1.91 1.85 1.75 1.64 1.72 1.76 1.75 1.75 1.65 1.61 1.61 1.56 1.51 1.48 1.51 1.49 1.58 1.64 1.62 1.63 1.65 1.73 1.82
1.08 1.32 1.34 1.40 1.56 1.47 1.31 1.44 1.22 1.14 1.05 1.09 1.10 1.20 1.24 1.30 1.34 1.26 1.21 1.31 1.51 1.67 1.79 1.87 1.97 1.97 1.90 1.84 1.71 1.77 1.83 1.76 1.69 1.71 1.62 1.56 1.52 1.44 1.44 1.52 1.56 1.57 1.62 1.61 1.55 1.54 1.68 1.72 1.69
1.11 1.19 1.34 1.44 1.44 1.48 1.52 1.35 1.26 1.19 1.24 1.19 1.23 1.26 1.21 1.27 1.33 1.34 1.29 1.39 1.47 1.58 1.74 1.79 1.89 1.93 1.89 1.80 1.74 1.87 1.89 1.85 1.72 1.67 1.60 1.63 1.50 1.42 1.55 1.53 1.59 1.57 1.57 1.54 1.48 1.57 1.73 1.71 1.84
1.19 1.22 1.27 1.37 1.43 1.48 1.39 1.37 1.37 1.33 1.38 1.12 1.17 1.18 1.20 1.23 1.31 1.28 1.28 1.33 1.45 1.54 1.62 1.77 1.78 1.87 1.89 1.80 1.87 1.96 1.98 1.84 1.63 1.61 1.51 1.63 1.60 1.61 1.56 1.58 1.57 1.55 1.57 1.53 1.49 1.66 1.80 1.81 1.73
1.21 1.02 1.15 1.22 1.36 1.37 1.44 1.19 1.23 1.41 1.41 1.13 1.17 1.21 1.29 1.31 1.31 1.22 1.29 1.24 1.41 1.52 1.62 1.67 1.69 1.79 1.78 1.79 1.83 1.87 1.89 1.75 1.60 1.56 1.58 1.59 1.58 1.51 1.56 1.54 1.67 1.67 1.62 1.48 1.55 1.72 1.85 1.79 1.77
1.04 1.05 0.86 1.06 1.20 1.30 1.31 0.95 1.26 1.47 1.38 1.23 1.15 1.25 1.31 1.30 1.38 1.35 1.31 1.24 1.35 1.41 1.45 1.47 1.56 1.56 1.58 1.61 1.71 1.70 1.67 1.62 1.58 1.58 1.61 1.62 1.58 1.54 1.61 1.62 1.64 1.65 1.59 1.49 1.57 1.70 1.78 1.70 1.67
0.93 0.71 0.80 0.92 1.18 1.16 1.12 0.97 1.19 1.40 1.40 1.25 1.19 1.21 1.30 1.31 1.41 1.38 1.35 1.28 1.26 1.35 1.38 1.39 1.45 1.48 1.67 1.84 1.87 1.69 1.62 1.60 1.64 1.60 1.64 1.66 1.67 1.61 1.56 1.75 1.72 1.69 1.58 1.50 1.62 1.71 1.70 1.60 1.61
0.63 0.68 0.80 0.81 0.99 1.07 0.95 0.95 1.21 1.31 1.40 1.29 1.26 1.30 1.25 1.24 1.36 1.39 1.39 1.35 1.31 1.35 1.42 1.46 1.54 1.61 1.70 1.82 1.91 1.68 1.67 1.75 1.68 1.61 1.73 1.75 1.76 1.78 1.61 1.69 1.74 1.71 1.67 1.50 1.60 1.64 1.71 1.67 1.60
0.79 0.71 0.69 0.87 1.05 0.96 0.90 0.92 1.06 1.24 1.30 1.25 1.32 1.29 1.27 1.22 1.36 1.40 1.41 1.44 1.35 1.33 1.40 1.44 1.47 1.64 1.69 1.72 1.65 1.68 1.69 1.73 1.60 1.65 1.76 1.76 1.78 1.84 1.75 1.66 1.72 1.71 1.64 1.54 1.65 1.56 1.61 1.61 1.72
0.66 0.54 0.54 0.79 0.99 0.95 0.90 0.87 1.04 1.14 1.20 1.26 1.28 1.28 1.32 1.33 1.39 1.42 1.46 1.44 1.41 1.32 1.37 1.38 1.45 1.62 1.69 1.69 1.70 1.59 1.63 1.59 1.54 1.66 1.61 1.70 1.74 1.86 1.77 1.78 1.79 1.71 1.78 1.76 1.64 1.48 1.48 1.61 1.73
0.45 0.38 0.46 0.56 0.86 1.01 0.90 0.79 0.91 1.09 1.15 1.25 1.36 1.40 1.38 1.34 1.27 1.32 1.36 1.38 1.44 1.36 1.34 1.38 1.47 1.58 1.68 1.71 1.68 1.67 1.66 1.57 1.51 1.62 1.63 1.58 1.66 1.81 1.87 1.79 1.77 1.68 1.77 1.74 1.69 1.60 1.53 1.51 1.73
0.30 0.41 0.55 0.67 0.67 0.55 0.83 0.52 0.69 0.90 0.95 1.09 1.24 1.35 1.34 1.40 1.37 1.40 1.39 1.36 1.40 1.37 1.43 1.46 1.49 1.56 1.62 1.64 1.58 1.58 1.53 1.42 1.53 1.55 1.67 1.66 1.63 1.85 1.88 1.77 1.67 1.67 1.83 1.73 1.70 1.78 1.57 1.55 1.54
0.30 0.45 0.65 0.70 0.63 0.63 0.67 0.58 0.57 0.81 0.81 0.93 1.11 1.28 1.42 1.43 1.40 1.41 1.37 1.39 1.38 1.43 1.44 1.53 1.55 1.54 1.61 1.66 1.56 1.54 1.49 1.51 1.52 1.49 1.57 1.49 1.55 1.75 1.81 1.71 1.77 1.78 1.88 1.84 1.77 1.66 1.62 1.64 1.63
0.51 0.56 0.63 0.69 0.60 0.42 0.56 0.55 0.48 0.60 0.75 0.89 1.07 1.20 1.30 1.46 1.47 1.51 1.51 1.49 1.37 1.44 1.48 1.52 1.53 1.55 1.59 1.63 1.61 1.52 1.58 1.58 1.49 1.45 1.43 1.44 1.49 1.51 1.66 1.74 1.82 1.76 1.80 1.83 1.82 1.79 1.66 1.63 1.64
0.41 0.39 0.34 0.34 0.37 0.36 0.53 0.51 0.48 0.69 0.83 0.92 1.03 1.16 1.25 1.35 1.46 1.52 1.50 1.48 1.53 1.39 1.42 1.49 1.52 1.53 1.60 1.61 1.61 1.59 1.58 1.67 1.52 1.45 1.39 1.37 1.40 1.46 1.49 1.63 1.73 1.68 1.70 1.68 1.67 1.58 1.51 1.60 1.61
0.36 0.32 0.26 0.20 0.23 0.28 0.51 0.34 0.38 0.72 0.88 0.96 1.05 1.15 1.27 1.33 1.39 1.48 1.53 1.53 1.64 1.52 1.43 1.42 1.47 1.47 1.57 1.56 1.58 1.64 1.65 1.59 1.57 1.58 1.48 1.54 1.50 1.49 1.56 1.53 1.63 1.67 1.66 1.61 1.60 1.56 1.52 1.60 1.65
0.31 0.29 0.36 0.25 0.30 0.25 0.33 0.45 0.61 0.75 0.72 0.78 0.85 1.04 1.13 1.29 1.35 1.41 1.57 1.63 1.60 1.60 1.38 1.36 1.37 1.40 1.50 1.58 1.56 1.56 1.57 1.59 1.60 1.62 1.55 1.60 1.62 1.57 1.62 1.63 1.62 1.75 1.69 1.62 1.56 1.51 1.49 1.50 1.56
0.30 0.31 0.24 0.28 0.22 0.21 0.32 0.38 0.38 0.49 0.55 0.62 0.73 0.87 1.09 1.31 1.34 1.38 1.49 1.59 1.63 1.61 1.50 1.45 1.43 1.36 1.51 1.58 1.55 1.48 1.53 1.52 1.60 1.58 1.57 1.63 1.66 1.66 1.58 1.65 1.72 1.77 1.75 1.68 1.54 1.55 1.59 1.55 1.48
0.37 0.34 0.34 0.36 0.34 0.24 0.22 0.27 0.52 0.53 0.56 0.57 0.69 0.83 0.96 1.18 1.36 1.41 1.45 1.59 1.65 1.71 1.66 1.65 1.38 1.38 1.50 1.58 1.53 1.50 1.49 1.53 1.59 1.59 1.65 1.67 1.72 1.73 1.67 1.67 1.80 1.87 1.80 1.69 1.52 1.50 1.57 1.55 1.46
0.54 0.45 0.44 0.31 0.28 0.36 0.34 0.31 0.59 0.61 0.61 0.62 0.69 0.85 1.01 1.16 1.30 1.44 1.51 1.56 1.63 1.65 1.74 1.72 1.57 1.47 1.60 1.67 1.56 1.49 1.56 1.55 1.51 1.49 1.57 1.69 1.75 1.80 1.67 1.59 1.68 1.74 1.77 1.73 1.61 1.52 1.57 1.53 1.48

GFSSGP_prec_pwat_165.txt.gz
Precipitable_Water
1.92 1.90 1.87 1.60 1.00 0.92 0.76 0.79 0.99 0.94 0.96 1.17 1.20 1.12 1.06 1.17 1.02 0.87 1.70 1.80 1.88 1.85 1.86 1.98 2.09 2.03 2.00 2.06 2.13 2.04 2.12 2.22 2.23 2.12 2.03 1.95 2.14 2.08 1.56 1.55 1.84 1.97 1.95 1.78 1.63 1.65 1.53 1.51 1.59
1.76 1.81 1.59 1.33 0.88 0.72 0.79 0.93 0.90 1.03 1.14 1.24 1.17 1.15 1.07 1.06 1.36 1.46 1.55 1.80 1.92 1.97 1.96 2.03 2.07 2.04 2.11 2.09 2.18 2.14 2.11 2.16 2.27 2.31 2.24 2.20 2.18 1.65 1.70 1.92 2.10 2.05 1.89 1.82 1.82 1.68 1.68 1.74 1.80
1.93 1.79 1.32 1.10 0.89 0.74 0.78 0.94 1.00 1.10 1.19 1.13 1.08 1.20 1.15 1.08 1.39 1.49 1.71 1.79 1.96 2.01 2.08 2.07 2.09 2.08 2.10 2.19 2.22 2.25 2.10 2.19 2.30 2.31 2.22 2.27 1.78 1.91 2.23 2.24 1.97 1.71 1.59 1.56 1.49 1.57 1.70 1.81 1.86
1.81 1.61 1.43 1.01 0.85 0.93 0.87 0.96 1.07 1.06 1.15 1.16 1.08 0.95 1.24 1.44 1.40 1.60 1.75 1.80 1.83 1.96 2.08 2.12 2.16 2.13 2.15 2.14 2.21 2.28 2.22 2.19 2.29 2.24 2.10 1.87 2.06 2.27 2.00 1.75 1.54 1.45 1.45 1.41 1.46 1.56 1.65 1.72 1.71
1.68 1.37 1.05 0.96 0.91 0.99 1.00 1.08 1.13 1.04 1.06 1.04 1.06 0.90 1.04 1.38 1.58 1.64 1.70 1.76 1.74 1.88 2.05 2.13 2.20 2.14 2.15 2.14 2.22 2.17 2.23 2.35 2.26 2.11 1.95 2.11 2.12 1.97 1.73 1.54 1.54 1.47 1.38 1.39 1.47 1.54 1.53 1.57 1.71
1.24 1.29 0.95 0.90 0.96 1.07 1.16 1.15 1.12 1.06 1.08 1.03 0.98 0.92 0.98 1.39 1.45 1.57 1.70 1.71 1.78 1.83 2.01 2.14 2.17 2.13 2.17 2.07 2.16 2.16 2.18 2.11 1.97 2.05 2.16 2.07 1.93 1.77 1.62 1.56 1.52 1.50 1.48 1.42 1.30 1.40 1.52 1.59 1.69
1.15 1.14 1.03 1.03 1.06 1.06 1.19 1.27 1.04 1.02 0.97 0.93 1.01 0.83 1.04 1.22 1.45 1.60 1.73 1.79 1.78 1.87 1.95 2.10 2.11 2.13 2.12 2.20 2.18 2.15 2.11 2.06 2.04 2.14 2.14 1.93 1.77 1.71 1.63 1.59 1.61 1.59 1.53 1.46 1.38 1.35 1.45 1.56 1.63
1.32 1.22 1.11 1.13 1.08 1.06 1.30 1.21 1.15 1.02 0.93 1.12 1.12 0.82 0.91 1.25 1.50 1.62 1.69 1.65 1.72 1.80 1.89 2.00 2.11 2.16 2.06 2.11 2.18 2.12 2.12 2.19 2.19 2.12 2.08 1.81 1.72 1.68 1.60 1.55 1.57 1.50 1.51 1.51 1.47 1.47 1.47 1.55 1.73
1.45 1.02 0.98 1.13 1.16 1.19 1.32 1.08 1.21 1.23 1.00 1.09 1.12 1.07 1.20 1.41 1.52 1.52 1.58 1.60 1.73 1.72 1.83 1.95 2.07 2.12 2.07 2.08 2.11 2.06 2.09 2.11 2.01 2.07 1.87 1.68 1.64 1.61 1.56 1.51 1.48 1.45 1.44 1.36 1.34 1.38 1.54 1.64 1.83
1.16 0.96 1.09 1.38 1.34 1.25 1.23 1.20 1.14 1.04 0.97 0.92 1.02 1.18 1.34 1.43 1.38 1.28 1.44 1.57 1.69 1.73 1.80 1.94 2.06 2.07 1.97 1.95 1.96 1.88 1.81 1.81 1.88 1.84 1.71 1.63 1.64 1.64 1.52 1.46 1.36 1.35 1.40 1.42 1.48 1.56 1.70 1.79 1.91
1.20 1.00 1.27 1.40 1.48 1.44 1.30 1.28 1.27 1.01 0.87 0.90 0.92 1.12 1.30 1.35 1.24 1.23 1.35 1.55 1.67 1.84 1.91 1.97 2.03 2.00 1.94 1.82 1.81 1.78 1.73 1.72 1.81 1.79 1.69 1.65 1.65 1.53 1.44 1.44 1.40 1.47 1.53 1.57 1.59 1.64 1.77 1.81 1.86
1.07 1.27 1.36 1.47 1.56 1.46 1.34 1.42 1.19 1.07 1.02 1.06 1.15 1.25 1.28 1.28 1.19 1.20 1.27 1.44 1.67 1.77 1.88 1.95 2.00 1.93 1.87 1.78 1.66 1.81 1.78 1.73 1.79 1.73 1.60 1.63 1.54 1.43 1.44 1.45 1.52 1.50 1.56 1.51 1.58 1.68 1.72 1.81 1.77
1.10 1.19 1.33 1.48 1.50 1.48 1.49 1.34 1.25 1.13 1.17 1.13 1.25 1.24 1.24 1.25 1.23 1.27 1.35 1.48 1.65 1.68 1.80 1.88 1.97 1.88 1.80 1.72 1.77 1.86 1.76 1.71 1.72 1.69 1.62 1.63 1.48 1.42 1.51 1.52 1.57 1.49 1.52 1.50 1.58 1.75 1.91 1.92 1.80
1.19 1.21 1.29 1.40 1.44 1.47 1.35 1.30 1.38 1.33 1.23 1.12 1.16 1.18 1.21 1.24 1.21 1.23 1.35 1.42 1.55 1.69 1.75 1.81 1.87 1.89 1.79 1.73 1.80 1.79 1.89 1.71 1.72 1.64 1.56 1.63 1.59 1.59 1.55 1.58 1.55 1.51 1.53 1.54 1.60 1.78 1.98 1.91 1.87
1.17 1.03 1.14 1.26 1.38 1.33 1.35 1.18 1.22 1.37 1.28 1.06 1.11 1.19 1.16 1.20 1.22 1.18 1.27 1.43 1.52 1.61 1.73 1.74 1.83 1.85 1.78 1.77 1.89 1.92 1.98 1.90 1.64 1.58 1.56 1.60 1.58 1.57 1.60 1.55 1.65 1.66 1.60 1.52 1.60 1.79 2.01 1.82 1.85
1.00 1.01 0.82 1.09 1.25 1.34 1.28 0.98 1.27 1.44 1.33 1.09 1.10 1.20 1.22 1.25 1.24 1.23 1.26 1.35 1.53 1.64 1.67 1.71 1.76 1.81 1.79 1.82 1.87 1.82 1.89 1.70 1.61 1.54 1.58 1.61 1.59 1.56 1.62 1.62 1.56 1.69 1.57 1.52 1.60 1.77 1.89 1.79 1.77
0.88 0.70 0.78 0.90 1.16 1.12 1.12 0.96 1.27 1.45 1.34 1.22 1.11 1.20 1.26 1.23 1.33 1.25 1.24 1.27 1.41 1.49 1.51 1.52 1.58 1.57 1.59 1.65 1.68 1.70 1.63 1.60 1.57 1.57 1.62 1.68 1.67 1.60 1.59 1.70 1.73 1.67 1.63 1.55 1.64 1.80 1.77 1.72 1.66
0.64 0.66 0.76 0.81 0.99 1.02 0.95 1.01 1.19 1.34 1.38 1.29 1.20 1.27 1.26 1.30 1.33 1.31 1.29 1.27 1.31 1.41 1.45 1.46 1.53 1.64 1.76 1.88 1.88 1.66 1.56 1.60 1.67 1.59 1.70 1.76 1.75 1.68 1.63 1.66 1.74 1.75 1.66 1.57 1.64 1.74 1.75 1.74 1.73
0.77 0.72 0.65 0.82 1.03 0.94 0.88 0.95 1.09 1.25 1.30 1.30 1.29 1.29 1.27 1.19 1.39 1.39 1.41 1.30 1.30 1.35 1.38 1.38 1.45 1.61 1.74 1.73 1.70 1.50 1.58 1.68 1.67 1.64 1.79 1.78 1.78 1.86 1.80 1.62 1.67 1.73 1.64 1.60 1.64 1.69 1.59 1.69 1.79
0.74 0.63 0.54 0.73 1.00 0.96 0.90 0.85 1.03 1.14 1.19 1.27 1.29 1.29 1.24 1.21 1.27 1.33 1.40 1.37 1.29 1.30 1.40 1.40 1.43 1.58 1.74 1.79 1.75 1.72 1.70 1.72 1.66 1.61 1.73 1.76 1.77 1.92 1.80 1.76 1.77 1.70 1.72 1.79 1.70 1.60 1.53 1.64 1.79
0.54 0.46 0.46 0.50 0.83 0.95 0.86 0.75 0.83 1.01 1.13 1.24 1.33 1.42 1.39 1.33 1.31 1.30 1.37 1.41 1.38 1.31 1.37 1.40 1.44 1.53 1.72 1.81 1.77 1.72 1.71 1.65 1.47 1.60 1.58 1.64 1.76 1.83 1.78 1.78 1.77 1.80 1.85 1.84 1.80 1.70 1.62 1.54 1.74
0.37 0.38 0.50 0.59 0.66 0.54 0.81 0.51 0.66 0.84 0.89 1.05 1.22 1.34 1.38 1.39 1.31 1.27 1.34 1.34 1.38 1.35 1.42 1.40 1.48 1.54 1.68 1.77 1.71 1.63 1.55 1.43 1.54 1.61 1.67 1.67 1.71 1.80 1.88 1.78 1.78 1.70 1.87 1.80 1.79 1.84 1.74 1.61 1.54
0.36 0.46 0.61 0.68 0.61 0.59 0.62 0.53 0.57 0.72 0.72 0.85 1.06 1.25 1.39 1.41 1.37 1.34 1.38 1.37 1.40 1.45 1.38 1.44 1.48 1.53 1.59 1.63 1.66 1.66 1.60 1.57 1.61 1.60 1.67 1.69 1.70 1.73 1.86 1.77 1.75 1.75 1.90 1.88 1.81 1.77 1.72 1.69 1.62
0.52 0.55 0.59 0.64 0.60 0.40 0.50 0.52 0.44 0.55 0.69 0.83 1.00 1.15 1.28 1.42 1.45 1.45 1.50 1.46 1.42 1.45 1.44 1.47 1.49 1.51 1.57 1.62 1.61 1.55 1.58 1.59 1.50 1.49 1.49 1.52 1.53 1.59 1.75 1.78 1.77 1.80 1.84 1.86 1.90 1.90 1.80 1.69 1.62
0.50 0.41 0.31 0.33 0.36 0.31 0.51 0.48 0.47 0.61 0.77 0.84 0.90 1.00 1.17 1.33 1.45 1.47 1.50 1.48 1.42 1.35 1.39 1.44 1.48 1.48 1.56 1.57 1.61 1.59 1.58 1.68 1.58 1.53 1.49 1.43 1.48 1.53 1.56 1.69 1.74 1.79 1.76 1.81 1.77 1.73 1.62 1.62 1.63
0.38 0.35 0.24 0.19 0.23 0.26 0.48 0.36 0.42 0.67 0.80 0.85 0.91 1.01 1.13 1.22 1.33 1.43 1.49 1.54 1.55 1.40 1.37 1.41 1.44 1.48 1.57 1.60 1.61 1.65 1.69 1.62 1.70 1.59 1.52 1.44 1.47 1.52 1.59 1.59 1.64 1.77 1.79 1.72 1.68 1.65 1.60 1.60 1.66
0.34 0.31 0.36 0.29 0.32 0.24 0.29 0.38 0.48 0.61 0.69 0.74 0.75 0.90 1.02 1.19 1.31 1.40 1.48 1.52 1.62 1.60 1.55 1.42 1.42 1.47 1.54 1.58 1.58 1.63 1.68 1.65 1.60 1.64 1.66 1.57 1.67 1.63 1.61 1.65 1.64 1.68 1.70 1.73 1.67 1.61 1.57 1.60 1.55
0.34 0.36 0.25 0.29 0.21 0.20 0.29 0.33 0.33 0.43 0.51 0.62 0.65 0.73 0.89 1.06 1.24 1.38 1.46 1.48 1.62 1.65 1.70 1.63 1.43 1.43 1.47 1.52 1.62 1.60 1.62 1.66 1.65 1.73 1.65 1.61 1.68 1.70 1.66 1.69 1.64 1.72 1.75 1.77 1.76 1.57 1.59 1.61 1.60
0.36 0.35 0.34 0.32 0.29 0.22 0.22 0.28 0.44 0.47 0.54 0.54 0.59 0.70 0.78 0.90 1.07 1.28 1.46 1.51 1.61 1.69 1.72 1.69 1.46 1.37 1.46 1.50 1.61 1.64 1.60 1.61 1.59 1.58 1.64 1.65 1.67 1.73 1.69 1.68 1.71 1.78 1.80 1.84 1.77 1.58 1.54 1.54 1.61
0.51 0.45 0.43 0.31 0.32 0.34 0.30 0.29 0.53 0.60 0.61 0.62 0.62 0.74 0.86 0.94 1.06 1.23 1.40 1.51 1.56 1.63 1.71 1.70 1.62 1.51 1.47 1.42 1.55 1.61 1.60 1.60 1.55 1.52 1.57 1.69 1.69 1.76 1.79 1.80 1.71 1.79 1.84 1.88 1.75 1.64 1.54 1.51 1.50

GFSSGP_prec_pwat_168.txt.gz
Precipitable_Water
1.95 2.00 1.91 1.68 1.10 0.98 0.83 0.80 0.97 0.92 0.97 1.15 1.15 1.13 1.13 1.26 1.15 1.02 1.78 1.83 1.85 1.87 2.02 2.10 2.07 2.07 2.09 2.12 2.11 2.17 2.21 2.21 2.11 2.01 1.90 2.00 2.12 1.88 1.61 1.77 1.80 1.73 1.52 1.48 1.46 1.45 1.47 1.46 1.59
1.80 1.80 1.62 1.38 0.95 0.80 0.88 0.93 0.94 1.02 1.09 1.19 1.15 1.14 1.12 1.13 1.43 1.52 1.60 1.85 1.87 1.87 2.02 2.05 2.11 2.02 2.02 2.10 2.13 2.13 2.11 2.19 2.30 2.17 2.09 2.18 2.09 1.68 1.76 1.98 2.08 1.95 1.83 1.77 1.69 1.62 1.64 1.69 1.74
1.86 1.82 1.38 1.15 0.92 0.81 0.84 0.97 0.99 1.07 1.14 1.10 1.05 1.18 1.15 1.17 1.45 1.57 1.77 1.85 1.98 1.94 2.08 2.10 2.10 2.02 2.07 2.13 2.17 2.18 2.07 2.21 2.26 2.26 2.30 2.24 1.81 1.93 2.19 2.19 1.90 1.75 1.69 1.63 1.61 1.64 1.71 1.81 1.88
1.83 1.65 1.46 1.07 0.92 0.97 0.91 0.96 1.05 1.08 1.14 1.15 1.08 0.99 1.25 1.48 1.45 1.67 1.77 1.84 1.91 1.98 2.10 2.12 2.13 2.09 2.13 2.23 2.23 2.22 2.13 2.24 2.23 2.31 2.30 1.88 2.14 2.27 2.02 1.73 1.51 1.51 1.44 1.42 1.57 1.64 1.73 1.79 1.75
1.72 1.43 1.12 1.04 1.01 1.01 1.03 1.08 1.10 1.04 1.05 1.04 1.05 0.93 1.07 1.41 1.61 1.65 1.72 1.79 1.81 1.98 2.10 2.14 2.16 2.15 2.14 2.14 2.18 2.27 2.18 2.27 2.20 2.21 2.02 2.26 2.14 1.95 1.73 1.55 1.35 1.36 1.39 1.50 1.58 1.58 1.60 1.64 1.68
1.29 1.34 0.96 0.94 1.03 1.08 1.18 1.17 1.08 1.05 1.05 1.00 1.00 0.97 1.07 1.43 1.49 1.61 1.72 1.74 1.84 1.95 2.10 2.11 2.18 2.13 2.09 2.11 2.19 2.27 2.18 2.14 2.20 2.14 2.22 2.08 1.92 1.73 1.51 1.50 1.51 1.45 1.41 1.37 1.46 1.51 1.54 1.61 1.66
1.13 1.14 1.07 1.03 1.09 1.08 1.18 1.28 1.05 1.01 0.99 0.93 1.02 0.89 1.08 1.27 1.55 1.68 1.75 1.79 1.80 1.91 2.03 2.20 2.18 2.14 2.05 2.14 2.19 2.20 2.14 2.16 2.20 2.29 2.12 1.91 1.77 1.59 1.52 1.50 1.54 1.51 1.41 1.35 1.34 1.45 1.55 1.59 1.72
1.32 1.21 1.10 1.18 1.12 1.09 1.33 1.23 1.12 1.00 0.93 1.08 1.12 0.89 0.96 1.28 1.51 1.66 1.76 1.77 1.81 1.85 2.00 2.13 2.19 2.16 2.12 2.04 2.07 2.20 2.13 2.16 2.23 2.17 1.98 1.80 1.69 1.56 1.49 1.52 1.60 1.49 1.46 1.44 1.41 1.45 1.52 1.67 1.85
1.39 1.04 1.01 1.11 1.21 1.22 1.36 1.14 1.19 1.20 1.01 1.07 1.15 1.14 1.26 1.43 1.52 1.59 1.57 1.60 1.69 1.78 1.88 2.04 2.14 2.15 2.10 2.05 2.12 2.08 2.25 2.24 2.15 2.10 1.80 1.77 1.69 1.61 1.62 1.55 1.45 1.43 1.41 1.37 1.45 1.59 1.73 1.91 2.05
1.20 1.00 1.08 1.39 1.42 1.32 1.32 1.19 1.10 1.03 0.97 0.96 1.03 1.22 1.36 1.42 1.36 1.37 1.51 1.53 1.64 1.67 1.81 1.99 2.10 2.11 2.07 2.04 2.05 2.14 2.18 2.11 2.15 1.95 1.74 1.69 1.68 1.64 1.54 1.42 1.37 1.40 1.43 1.49 1.64 1.82 1.96 1.96 1.88
1.21 1.04 1.27 1.40 1.44 1.45 1.27 1.25 1.17 1.02 0.84 0.93 0.97 1.16 1.31 1.31 1.25 1.30 1.49 1.64 1.73 1.75 1.87 2.00 2.08 2.09 1.99 1.97 1.91 1.82 1.89 1.94 1.92 1.86 1.75 1.71 1.67 1.56 1.49 1.46 1.42 1.58 1.60 1.72 1.73 1.93 2.06 2.00 1.91
1.13 1.23 1.35 1.43 1.43 1.43 1.32 1.37 1.14 1.06 0.95 1.06 1.17 1.28 1.31 1.24 1.22 1.26 1.38 1.60 1.77 1.85 1.86 2.02 2.06 2.02 1.88 1.82 1.81 1.84 1.83 1.88 1.88 1.80 1.70 1.68 1.60 1.48 1.47 1.52 1.54 1.58 1.65 1.64 1.81 1.90 2.03 1.96 1.90
1.13 1.20 1.34 1.45 1.50 1.49 1.48 1.36 1.22 1.07 1.07 1.16 1.19 1.23 1.26 1.26 1.23 1.30 1.42 1.61 1.78 1.81 1.89 1.99 2.01 1.97 1.84 1.76 1.90 1.91 1.84 1.87 1.89 1.74 1.72 1.69 1.52 1.50 1.53 1.53 1.60 1.57 1.62 1.64 1.83 1.99 2.08 2.04 1.91
1.20 1.23 1.31 1.39 1.36 1.43 1.37 1.38 1.31 1.24 1.12 1.12 1.17 1.17 1.22 1.24 1.23 1.28 1.38 1.53 1.66 1.76 1.83 1.96 1.94 1.94 1.82 1.78 1.93 1.93 1.87 1.76 1.81 1.72 1.65 1.68 1.62 1.58 1.55 1.58 1.60 1.53 1.61 1.66 1.80 1.99 2.00 1.96 1.95
1.17 1.01 1.17 1.28 1.35 1.35 1.38 1.19 1.28 1.32 1.14 1.05 1.12 1.12 1.15 1.21 1.22 1.26 1.37 1.49 1.65 1.75 1.80 1.85 1.89 1.90 1.77 1.72 1.82 1.92 1.77 1.80 1.80 1.66 1.65 1.62 1.60 1.58 1.59 1.58 1.68 1.69 1.64 1.62 1.72 1.99 2.05 1.93 1.91
0.98 1.01 0.87 1.14 1.23 1.30 1.25 1.00 1.33 1.41 1.24 1.03 1.13 1.18 1.17 1.19 1.24 1.24 1.40 1.53 1.63 1.72 1.74 1.82 1.84 1.81 1.74 1.75 1.83 1.92 1.92 1.90 1.78 1.64 1.59 1.58 1.53 1.55 1.60 1.58 1.67 1.68 1.61 1.63 1.67 1.86 1.91 1.87 1.83
0.91 0.76 0.86 0.91 1.18 1.21 1.18 1.07 1.33 1.41 1.39 1.24 1.10 1.20 1.19 1.24 1.26 1.21 1.28 1.50 1.62 1.73 1.70 1.76 1.84 1.73 1.76 1.84 1.87 1.94 1.93 1.80 1.71 1.60 1.62 1.60 1.60 1.56 1.58 1.67 1.66 1.70 1.66 1.63 1.66 1.81 1.81 1.76 1.76
0.69 0.69 0.77 0.84 1.02 1.02 1.04 1.06 1.25 1.37 1.32 1.26 1.19 1.21 1.24 1.25 1.30 1.24 1.20 1.33 1.49 1.58 1.65 1.71 1.73 1.73 1.71 1.72 1.79 1.82 1.74 1.70 1.69 1.62 1.66 1.71 1.66 1.56 1.55 1.68 1.75 1.75 1.68 1.66 1.65 1.72 1.70 1.75 1.77
0.79 0.72 0.63 0.76 1.00 0.94 0.92 0.99 1.11 1.28 1.30 1.27 1.23 1.29 1.29 1.28 1.38 1.33 1.27 1.26 1.37 1.42 1.42 1.48 1.54 1.66 1.76 1.81 1.75 1.63 1.53 1.65 1.67 1.68 1.78 1.79 1.81 1.81 1.76 1.66 1.65 1.77 1.71 1.80 1.63 1.65 1.64 1.70 1.77
0.73 0.66 0.58 0.74 0.97 0.94 0.90 0.91 1.03 1.15 1.22 1.28 1.33 1.26 1.29 1.26 1.28 1.31 1.37 1.26 1.32 1.34 1.36 1.46 1.52 1.61 1.69 1.76 1.83 1.73 1.79 1.79 1.80 1.69 1.82 1.84 1.74 1.86 1.81 1.74 1.75 1.75 1.79 1.76 1.73 1.65 1.56 1.68 1.81
0.63 0.53 0.51 0.55 0.86 0.94 0.86 0.77 0.86 1.02 1.17 1.24 1.32 1.40 1.31 1.25 1.27 1.26 1.31 1.33 1.30 1.32 1.39 1.38 1.46 1.58 1.71 1.79 1.79 1.77 1.77 1.80 1.66 1.58 1.72 1.73 1.81 1.89 1.83 1.80 1.83 1.84 1.86 1.89 1.87 1.82 1.62 1.60 1.72
0.45 0.44 0.50 0.61 0.70 0.58 0.77 0.61 0.67 0.85 0.95 1.05 1.18 1.29 1.39 1.33 1.42 1.35 1.34 1.37 1.38 1.37 1.45 1.49 1.54 1.54 1.68 1.79 1.75 1.69 1.65 1.58 1.53 1.55 1.72 1.70 1.68 1.82 1.88 1.82 1.83 1.78 1.91 1.89 1.88 1.89 1.84 1.70 1.58
0.46 0.48 0.54 0.65 0.64 0.60 0.63 0.50 0.69 0.65 0.72 0.89 1.06 1.22 1.34 1.45 1.39 1.30 1.26 1.39 1.44 1.47 1.43 1.47 1.51 1.54 1.59 1.72 1.73 1.69 1.66 1.66 1.68 1.69 1.70 1.80 1.77 1.81 1.89 1.90 1.83 1.80 1.92 1.89 1.80 1.80 1.79 1.77 1.71
0.49 0.53 0.58 0.60 0.56 0.39 0.57 0.46 0.49 0.60 0.68 0.78 1.00 1.18 1.26 1.36 1.47 1.38 1.37 1.45 1.46 1.47 1.45 1.45 1.44 1.50 1.58 1.62 1.66 1.67 1.69 1.68 1.64 1.62 1.64 1.68 1.70 1.68 1.80 1.88 1.77 1.85 1.93 1.92 1.90 1.93 1.89 1.78 1.68
0.48 0.47 0.36 0.37 0.42 0.34 0.60 0.43 0.48 0.59 0.67 0.78 0.83 0.97 1.13 1.31 1.43 1.47 1.50 1.52 1.46 1.46 1.45 1.44 1.46 1.45 1.54 1.59 1.59 1.59 1.61 1.74 1.65 1.62 1.58 1.62 1.60 1.56 1.64 1.79 1.75 1.79 1.80 1.85 1.87 1.83 1.76 1.69 1.70
0.41 0.40 0.32 0.22 0.23 0.28 0.52 0.33 0.48 0.62 0.76 0.85 0.83 0.90 1.05 1.17 1.33 1.43 1.48 1.58 1.60 1.58 1.51 1.47 1.45 1.48 1.54 1.55 1.57 1.65 1.68 1.74 1.80 1.71 1.70 1.60 1.56 1.63 1.72 1.64 1.70 1.75 1.77 1.80 1.79 1.74 1.70 1.69 1.70
0.39 0.32 0.38 0.29 0.28 0.25 0.27 0.44 0.45 0.54 0.63 0.79 0.77 0.80 0.91 1.06 1.25 1.37 1.50 1.53 1.61 1.65 1.62 1.47 1.45 1.53 1.58 1.61 1.64 1.67 1.67 1.67 1.71 1.77 1.70 1.62 1.61 1.65 1.64 1.71 1.69 1.68 1.71 1.78 1.84 1.73 1.70 1.64 1.67
0.36 0.42 0.31 0.30 0.23 0.24 0.27 0.34 0.36 0.52 0.55 0.63 0.65 0.70 0.82 0.95 1.09 1.30 1.47 1.55 1.58 1.65 1.75 1.68 1.57 1.51 1.58 1.65 1.68 1.63 1.66 1.70 1.71 1.71 1.65 1.70 1.74 1.77 1.77 1.72 1.69 1.72 1.76 1.83 1.87 1.84 1.69 1.64 1.73
0.36 0.32 0.33 0.32 0.30 0.24 0.24 0.30 0.49 0.47 0.63 0.62 0.62 0.67 0.73 0.80 0.91 1.11 1.37 1.56 1.62 1.66 1.76 1.77 1.74 1.63 1.57 1.59 1.62 1.64 1.60 1.65 1.70 1.69 1.72 1.76 1.72 1.76 1.82 1.77 1.69 1.73 1.83 1.89 1.87 1.79 1.64 1.57 1.61
0.47 0.42 0.43 0.35 0.33 0.39 0.34 0.30 0.58 0.59 0.63 0.66 0.65 0.71 0.85 0.89 0.93 1.06 1.20 1.42 1.61 1.66 1.69 1.78 1.84 1.83 1.59 1.56 1.59 1.61 1.69 1.64 1.59 1.61 1.62 1.74 1.74 1.78 1.78 1.78 1.73 1.82 1.77 1.84 1.90 1.84 1.74 1.63 1.59

GFSSGP_prec_pwat_171.txt.gz
Precipitable_Water
1.96 2.07 1.97 1.74 1.18 1.22 0.89 0.80 0.96 0.95 0.98 1.11 1.16 1.24 1.19 1.33 1.18 1.09 1.78 1.85 1.85 1.91 1.96 2.04 2.10 2.11 2.14 2.14 2.16 2.22 2.16 2.07 1.95 1.89 1.93 1.97 2.03 1.74 1.84 1.74 1.51 1.49 1.45 1.42 1.48 1.49 1.45 1.45 1.51
1.89 1.78 1.66 1.44 1.08 0.97 0.91 0.99 1.05 0.97 1.03 1.15 1.15 1.17 1.25 1.20 1.44 1.54 1.65 1.81 1.86 1.97 1.99 2.05 2.03 2.07 2.12 2.09 2.10 2.17 2.15 2.20 2.14 2.04 1.99 2.17 1.84 1.81 1.86 1.92 1.89 1.75 1.65 1.67 1.57 1.53 1.61 1.65 1.68
1.83 1.83 1.45 1.22 1.07 0.97 0.89 1.03 0.97 1.05 1.09 1.07 1.04 1.22 1.25 1.25 1.51 1.57 1.78 1.82 1.87 2.07 2.03 2.01 2.08 2.04 2.06 2.08 2.11 2.08 2.13 2.19 2.27 2.22 2.20 2.15 1.75 1.86 2.03 1.97 1.77 1.72 1.70 1.63 1.59 1.61 1.68 1.75 1.78
1.81 1.72 1.48 1.06 1.08 1.03 1.00 0.95 1.02 1.06 1.08 1.09 1.05 0.98 1.23 1.49 1.47 1.66 1.81 1.87 1.91 2.08 2.21 2.03 2.03 2.07 2.10 2.12 2.16 2.21 2.11 2.12 2.25 2.21 2.12 1.85 2.16 2.26 2.06 1.71 1.56 1.50 1.49 1.55 1.59 1.62 1.71 1.72 1.70
1.73 1.54 1.22 1.07 1.09 1.08 1.03 1.07 1.13 1.01 0.99 1.02 1.05 0.97 1.09 1.43 1.60 1.70 1.75 1.85 1.95 2.06 2.05 2.11 2.13 2.17 2.14 2.22 2.22 2.23 2.14 2.12 2.18 2.16 2.04 2.24 2.20 1.87 1.55 1.42 1.45 1.42 1.42 1.55 1.58 1.60 1.61 1.60 1.62
1.33 1.33 0.99 0.92 1.20 1.10 1.17 1.13 1.05 1.02 1.03 0.97 1.02 1.03 1.12 1.46 1.49 1.59 1.72 1.83 1.95 2.10 2.08 2.13 2.20 2.17 2.10 2.13 2.21 2.25 2.19 2.20 2.19 2.16 2.25 2.16 1.90 1.64 1.60 1.43 1.38 1.37 1.43 1.50 1.52 1.52 1.60 1.66 1.74
1.17 1.12 1.09 1.12 1.14 1.11 1.19 1.27 1.02 0.98 0.98 0.92 1.05 0.97 1.15 1.36 1.56 1.66 1.73 1.76 1.92 1.98 2.02 2.12 2.13 2.14 2.12 2.14 2.18 2.19 2.03 2.14 2.23 2.28 2.13 1.92 1.64 1.53 1.49 1.51 1.48 1.41 1.31 1.36 1.48 1.56 1.61 1.72 1.84
1.24 1.19 1.10 1.14 1.08 1.18 1.32 1.19 1.09 0.99 0.87 1.06 1.15 0.94 0.98 1.39 1.56 1.66 1.75 1.81 1.82 2.09 2.00 2.18 2.09 2.12 2.10 2.09 2.13 2.14 2.19 2.30 2.32 2.12 1.92 1.72 1.61 1.56 1.58 1.58 1.55 1.46 1.37 1.33 1.39 1.54 1.71 1.87 2.01
1.37 1.12 1.03 1.21 1.29 1.29 1.35 1.17 1.13 1.12 0.97 1.06 1.12 1.20 1.31 1.40 1.60 1.60 1.67 1.73 1.75 1.89 1.92 2.10 2.21 2.13 2.00 2.04 2.09 2.15 2.22 2.22 2.14 2.00 1.75 1.76 1.70 1.69 1.74 1.64 1.40 1.40 1.43 1.54 1.66 1.77 1.96 2.03 1.96
1.22 1.08 1.16 1.36 1.44 1.41 1.31 1.32 1.04 0.99 0.98 0.95 1.08 1.22 1.34 1.42 1.45 1.42 1.50 1.50 1.66 1.74 1.92 1.99 2.15 2.15 1.99 2.01 2.06 2.18 2.15 2.19 2.16 1.90 1.75 1.95 1.82 1.83 1.61 1.39 1.45 1.49 1.56 1.67 1.87 1.96 1.97 2.09 2.15
1.20 1.09 1.28 1.33 1.48 1.57 1.37 1.20 1.10 1.05 0.87 0.97 1.02 1.14 1.28 1.31 1.31 1.43 1.45 1.59 1.65 1.77 1.95 2.09 2.06 2.12 1.93 1.89 1.99 2.07 2.26 2.35 2.03 1.83 1.82 1.76 1.63 1.49 1.59 1.35 1.48 1.62 1.63 1.70 1.90 2.04 2.31 2.16 2.11
1.20 1.23 1.27 1.35 1.49 1.53 1.45 1.27 1.13 1.02 0.95 1.12 1.21 1.28 1.25 1.22 1.25 1.39 1.46 1.66 1.80 1.82 1.85 2.00 2.06 2.12 2.06 1.88 1.79 1.83 1.98 2.01 1.88 1.79 1.81 1.71 1.77 1.56 1.63 1.63 1.54 1.77 1.97 1.77 2.04 2.19 2.12 2.04 2.01
1.13 1.26 1.28 1.36 1.42 1.44 1.44 1.28 1.18 0.98 1.07 1.17 1.20 1.22 1.22 1.21 1.24 1.34 1.58 1.70 1.90 1.89 1.94 2.02 2.07 1.99 1.87 1.88 1.92 2.02 2.03 2.06 1.98 1.67 1.80 1.70 1.61 1.57 1.63 1.60 1.78 1.69 1.67 1.79 2.06 2.09 2.12 2.07 1.97
1.20 1.25 1.27 1.34 1.36 1.44 1.35 1.36 1.34 1.12 1.11 1.14 1.18 1.20 1.23 1.22 1.23 1.31 1.49 1.62 1.78 1.87 1.94 2.02 2.01 1.93 1.84 1.86 1.92 1.97 2.08 2.09 1.93 1.73 1.71 1.70 1.64 1.64 1.63 1.66 1.67 1.62 1.68 1.79 1.98 2.07 2.07 2.05 2.00
1.13 0.98 1.15 1.22 1.28 1.27 1.38 1.34 1.13 1.28 1.10 1.08 1.12 1.17 1.16 1.21 1.22 1.28 1.42 1.59 1.72 1.81 1.93 1.95 1.98 1.92 1.85 1.83 1.99 2.00 1.93 1.88 1.82 1.76 1.69 1.70 1.82 1.65 1.72 1.67 1.72 1.78 1.70 1.69 1.85 2.08 2.09 2.02 2.00
1.00 1.04 0.93 1.14 1.21 1.33 1.25 1.06 1.23 1.33 1.11 1.05 1.09 1.14 1.15 1.18 1.25 1.30 1.44 1.60 1.74 1.77 1.84 1.93 1.92 1.83 1.85 1.86 1.90 1.98 1.79 1.91 1.92 1.74 1.66 1.62 1.61 1.68 1.67 1.62 1.75 1.68 1.64 1.71 1.78 1.94 1.95 1.89 1.86
0.96 0.80 0.85 0.98 1.20 1.16 1.17 1.07 1.31 1.47 1.34 1.23 1.17 1.13 1.19 1.21 1.23 1.25 1.45 1.57 1.70 1.79 1.80 1.81 1.81 1.78 1.72 1.81 1.90 1.93 2.01 2.04 1.90 1.72 1.67 1.64 1.64 1.64 1.70 1.68 1.72 1.76 1.70 1.68 1.79 1.87 1.84 1.81 1.81
0.79 0.70 0.79 0.94 1.00 1.09 1.07 1.08 1.23 1.34 1.33 1.26 1.24 1.21 1.19 1.20 1.24 1.19 1.30 1.54 1.74 1.70 1.76 1.87 1.85 1.78 1.75 1.77 1.86 1.99 1.95 1.93 1.78 1.70 1.73 1.66 1.69 1.63 1.59 1.67 1.81 1.77 1.72 1.68 1.77 1.78 1.76 1.74 1.77
0.98 0.75 0.61 0.84 0.96 0.94 0.99 1.13 1.13 1.21 1.27 1.23 1.23 1.30 1.29 1.24 1.39 1.24 1.20 1.34 1.56 1.59 1.72 1.81 1.79 1.79 1.80 1.76 1.75 1.79 1.77 1.73 1.70 1.71 1.76 1.80 1.82 1.72 1.66 1.71 1.79 1.75 1.78 1.95 1.66 1.74 1.66 1.73 1.82
0.91 0.72 0.61 0.76 0.91 0.93 0.91 0.93 1.10 1.12 1.21 1.24 1.25 1.29 1.38 1.41 1.29 1.31 1.21 1.22 1.31 1.39 1.45 1.51 1.62 1.71 1.72 1.94 1.88 1.98 1.74 1.81 1.79 1.74 1.80 1.86 1.78 1.85 1.87 1.81 1.75 1.81 1.84 1.80 1.73 1.60 1.62 1.60 1.78
0.64 0.60 0.50 0.55 0.79 0.85 0.83 0.91 0.92 1.09 1.17 1.25 1.31 1.35 1.35 1.29 1.35 1.25 1.27 1.22 1.24 1.32 1.36 1.47 1.57 1.67 1.72 1.87 1.87 1.79 1.87 2.09 1.69 1.71 1.71 1.81 1.79 1.90 1.97 1.86 1.91 1.83 1.88 2.06 1.84 1.89 1.53 1.85 1.63
0.50 0.48 0.48 0.57 0.65 0.82 0.78 0.57 0.99 0.94 0.95 1.04 1.18 1.26 1.34 1.33 1.38 1.48 1.30 1.31 1.27 1.27 1.39 1.44 1.50 1.56 1.68 1.80 1.80 1.69 1.71 1.70 1.65 1.62 1.81 1.74 1.79 1.92 1.90 1.86 1.86 1.90 2.00 1.92 1.97 1.93 1.90 1.59 1.64
0.52 0.52 0.51 0.62 0.58 0.69 0.62 0.46 0.81 0.82 0.86 0.94 1.02 1.17 1.29 1.41 1.37 1.51 1.41 1.35 1.43 1.41 1.37 1.48 1.54 1.58 1.63 1.75 1.82 1.75 1.69 1.66 1.81 1.63 1.79 1.80 1.83 1.80 1.87 1.93 1.89 1.87 2.10 1.91 1.97 1.82 1.79 1.86 1.67
0.50 0.46 0.52 0.50 0.47 0.40 0.54 0.50 0.62 0.78 0.80 0.82 1.12 1.15 1.23 1.31 1.45 1.42 1.41 1.50 1.38 1.50 1.48 1.45 1.49 1.55 1.59 1.66 1.70 1.70 1.79 1.75 1.68 1.85 1.72 1.77 1.82 1.76 1.82 1.94 1.86 1.88 2.03 1.91 1.91 1.92 1.89 1.82 1.69
0.39 0.41 0.38 0.43 0.42 0.42 0.62 0.49 0.56 0.70 0.75 0.80 0.90 1.01 1.15 1.24 1.35 1.41 1.42 1.43 1.60 1.55 1.49 1.49 1.49 1.45 1.55 1.56 1.68 1.66 1.73 1.77 1.77 1.78 1.59 1.62 1.57 1.75 1.78 1.78 1.84 1.85 1.84 1.99 1.98 1.90 1.87 1.75 1.81
0.36 0.41 0.41 0.34 0.27 0.37 0.65 0.44 0.46 0.68 0.77 0.82 0.81 0.87 0.99 1.17 1.28 1.38 1.46 1.48 1.52 1.62 1.64 1.48 1.51 1.46 1.51 1.56 1.59 1.65 1.66 1.69 1.74 1.72 1.84 1.70 2.05 1.49 1.75 1.70 1.85 1.83 1.89 1.89 1.87 1.82 1.74 2.04 1.73
0.38 0.37 0.43 0.33 0.33 0.27 0.30 0.42 0.53 0.62 0.67 0.77 0.84 0.83 0.93 1.01 1.21 1.34 1.45 1.51 1.60 1.62 1.70 1.66 1.52 1.56 1.56 1.56 1.60 1.64 1.67 1.68 1.73 1.85 1.88 1.83 1.74 2.21 1.67 1.66 1.65 1.76 1.78 1.83 1.87 1.82 1.72 1.79 1.68
0.34 0.46 0.35 0.32 0.26 0.26 0.35 0.35 0.38 0.57 0.60 0.77 0.78 0.75 0.89 0.98 1.06 1.21 1.38 1.53 1.60 1.66 1.73 1.79 1.70 1.55 1.59 1.63 1.71 1.69 1.76 1.69 1.71 1.77 1.83 1.65 1.84 1.62 2.19 1.62 1.75 1.74 1.78 1.80 1.81 1.83 1.85 1.71 1.64
0.36 0.30 0.33 0.34 0.33 0.29 0.28 0.40 0.55 0.55 0.59 0.73 0.77 0.72 0.80 0.81 0.91 1.03 1.21 1.44 1.62 1.72 1.69 1.76 1.84 1.76 1.65 1.65 1.71 1.74 1.69 1.73 1.72 1.71 1.73 1.67 1.74 1.67 1.71 1.78 1.79 1.80 1.81 1.92 1.89 1.90 1.92 1.67 1.61
0.47 0.43 0.43 0.39 0.40 0.40 0.39 0.41 0.63 0.63 0.61 0.60 0.67 0.77 0.80 0.92 0.94 1.02 1.10 1.22 1.36 1.67 1.70 1.74 1.84 1.88 1.74 1.73 1.72 1.73 1.77 1.73 1.69 1.71 1.74 1.82 1.78 1.79 1.73 1.81 1.83 1.89 1.83 1.94 1.90 1.89 2.13 1.89 1.63